McCall, ID

2:56 AM MDT on June 28, 2017 (GMT -0600)
McCall

Weather History for KMYL - June, 2013

Change the Weather History Date:

Saturday, June 15, 2013

  Actual Average Record
Temperature  
Mean Temperature 52 °F 52 °F  
Max Temperature 71 °F 67 °F 92 °F (1974)
Min Temperature 32 °F 38 °F 28 °F (1945)
Degree Days  
Heating Degree Days 13 13  
Month to date heating degree days 138 213  
Since 1 June heating degree days 138 213  
Since 1 July heating degree days 8513 9442  
Cooling Degree Days 0 0  
Month to date cooling degree days 0 0  
Year to date cooling degree days 0 0  
Since 1 June cooling degree days 0 0  
Growing Degree Days 2 (Base 50)    
Moisture  
Dew Point 29 °F    
Average Humidity 53    
Maximum Humidity 89    
Minimum Humidity 16    
Precipitation  
Precipitation 0.00 in 0.07 in 0.70 in (1956)
Month to date precipitation 0.16 1.13  
Year to date precipitation 9.47 10.91  
Sea Level Pressure  
Sea Level Pressure 30.04 in    
Wind  
Wind Speed 2 mph (NW)    
Max Wind Speed 12 mph    
Max Gust Speed 17 mph    
Visibility 10 miles    
Events      
T = Trace of Precipitation, MM = Missing Value Source: NWS Daily Summary

Daily Weather History Graph

Daily Weather History Graph

Search for Another Location

Airport or City:

Trip Planner

Search our weather history database for the weather conditions in past years. The results will help you decide how hot, cold, wet, or windy it might be!

Date:

Astronomy

Jun. 15, 2013 Rise Set
Actual Time 5:57 AM MDT 9:32 PM MDT
Civil Twilight 5:20 AM MDT 10:09 PM MDT
Nautical Twilight 4:30 AM MDT 10:59 PM MDT
Astronomical Twilight 3:25 AM MDT 12:04 AM MDT
Moon 12:52 PM MDT (6/15) 12:55 AM MDT (6/15)
Length of Visible Light 16h 49m
Length of Day
15h 35m
Waxing Crescent, 40% of the Moon is Illuminated
Jun 15
Waxing Crescent
Jun 16
First Quarter
Jun 23
Full
Jun 29
Last Quarter
Jul 8
New

Hourly Weather History & Observations

Time (MDT) Temp. Dew Point Humidity Pressure Visibility Wind Dir Wind Speed Gust Speed Precip Events Conditions
12:51 AM 43.0 °F 34.0 °F 71% 30.12 in 10.0 mi Calm Calm - N/A   Clear
1:51 AM 39.0 °F 32.0 °F 76% 30.10 in 10.0 mi Calm Calm - N/A   Clear
2:51 AM 37.9 °F 32.0 °F 79% 30.10 in 10.0 mi Calm Calm - N/A   Clear
3:51 AM 35.1 °F 30.9 °F 85% 30.09 in 10.0 mi Calm Calm - N/A   Clear
4:51 AM 34.0 °F 30.0 °F 85% 30.09 in 10.0 mi Calm Calm - N/A   Clear
5:51 AM 33.1 °F 28.9 °F 85% 30.09 in 10.0 mi Calm Calm - N/A   Clear
6:51 AM 34.0 °F 30.9 °F 89% 30.09 in 10.0 mi Calm Calm - N/A   Clear
7:51 AM 39.0 °F 33.1 °F 79% 30.08 in 10.0 mi Calm Calm - N/A   Clear
8:51 AM 45.0 °F 35.1 °F 68% 30.06 in 10.0 mi Calm Calm - N/A   Clear
9:51 AM 51.1 °F 35.1 °F 54% 30.07 in 10.0 mi Calm Calm - N/A   Clear
10:51 AM 55.9 °F 34.0 °F 44% 30.05 in 10.0 mi Calm Calm - N/A   Clear
11:51 AM 61.0 °F 28.9 °F 30% 30.03 in 10.0 mi Calm Calm - N/A   Clear
12:51 PM 63.0 °F 24.1 °F 23% 30.03 in 10.0 mi Calm Calm - N/A   Clear
1:51 PM 66.0 °F 23.0 °F 20% 30.02 in 10.0 mi Calm Calm - N/A   Clear
2:51 PM 66.9 °F 23.0 °F 19% 30.01 in 10.0 mi SSE 8.1 mph - N/A   Clear
3:51 PM 68.0 °F 24.1 °F 19% 30.00 in 10.0 mi Variable 3.5 mph - N/A   Clear
4:51 PM 70.0 °F 23.0 °F 17% 29.99 in 10.0 mi Calm Calm - N/A   Clear
5:51 PM 70.0 °F 23.0 °F 17% 29.98 in 10.0 mi Variable 3.5 mph - N/A   Clear
6:51 PM 70.0 °F 21.9 °F 16% 29.98 in 10.0 mi West 5.8 mph - N/A   Clear
7:51 PM 69.1 °F 23.0 °F 18% 29.97 in 10.0 mi NNW 4.6 mph - N/A   Clear
8:51 PM 66.9 °F 25.0 °F 21% 29.96 in 10.0 mi West 3.5 mph - N/A   Clear
9:51 PM 57.0 °F 34.0 °F 42% 29.98 in 10.0 mi NE 3.5 mph - N/A   Clear
10:51 PM 55.0 °F 34.0 °F 45% 29.99 in 10.0 mi Calm Calm - N/A   Clear
11:51 PM 55.0 °F 34.0 °F 45% 29.98 in 10.0 mi North 5.8 mph - N/A   Clear